owner,sensor,date,latitude,longitude,vertical_datum,wind_speed,wind_to_direction,wind_speed_of_gust,qcFlag 
TCOON,ioos:station:TCOON:057:1,2004-01-01T00:00:00Z,28.4460,-96.3961,0.0,6.0,80.0,99.0,'11111222,11111222,11144222' 
TCOON,ioos:station:TCOON:057:1,2004-01-01T01:00:00Z,28.4460,-96.3961,0.0,7.0,90.0,99.0,'11111222,11111222,11144222' 
TCOON,ioos:station:TCOON:057:1,2004-01-01T03:00:00Z,28.4460,-96.3961,0.0,5.0,100.0,99.0,'11111222,11111222,11144222' 
TCOON,ioos:station:TCOON:057:1,2004-01-01T04:00:00Z,28.4460,-96.3961,0.0,5.0,90.0,99.0,'11111222,11111222,11144222' 
TCOON,ioos:station:TCOON:057:1,2004-01-01T06:00:00Z,28.4460,-96.3961,0.0,4.0,100.0,99.0,'11111222,11111222,11144222' 
TCOON,ioos:station:TCOON:057:1,2004-01-01T07:00:00Z,28.4460,-96.3961,0.0,4.0,120.0,99.0,'11111222,11111222,11144222' 
TCOON,ioos:station:TCOON:057:1,2004-01-01T09:00:00Z,28.4460,-96.3961,0.0,2.0,120.0,99.0,'11111222,11111222,11144222' 
TCOON,ioos:station:TCOON:057:1,2004-01-01T10:00:00Z,28.4460,-96.3961,0.0,4.0,140.0,99.0,'11111222,11111222,11144222' 
TCOON,ioos:station:TCOON:057:1,2004-01-01T12:00:00Z,28.4460,-96.3961,0.0,3.0,140.0,99.0,'11111222,11111222,11144222' 
TCOON,ioos:station:TCOON:057:1,2004-01-01T13:00:00Z,28.4460,-96.3961,0.0,2.0,120.0,99.0,'11111222,11111222,11144222' 
TCOON,ioos:station:TCOON:057:1,2004-01-01T15:00:00Z,28.4460,-96.3961,0.0,3.0,120.0,99.0,'11111222,11111222,11144222' 
TCOON,ioos:station:TCOON:057:1,2004-01-01T16:00:00Z,28.4460,-96.3961,0.0,6.0,140.0,99.0,'11111222,11111222,11144222' 
TCOON,ioos:station:TCOON:057:1,2004-01-01T18:00:00Z,28.4460,-96.3961,0.0,4.0,140.0,99.0,'11111222,11111222,11144222' 
TCOON,ioos:station:TCOON:057:1,2004-01-01T19:00:00Z,28.4460,-96.3961,0.0,4.0,140.0,99.0,'11111222,11111222,11144222' 
TCOON,ioos:station:TCOON:057:1,2004-01-01T21:00:00Z,28.4460,-96.3961,0.0,3.0,130.0,99.0,'11111222,11111222,11144222' 
TCOON,ioos:station:TCOON:057:1,2004-01-01T22:00:00Z,28.4460,-96.3961,0.0,2.0,130.0,99.0,'11111222,11111222,11144222' 
TCOON,ioos:station:TCOON:057:1,2004-01-02T00:00:00Z,28.4460,-96.3961,0.0,3.0,100.0,99.0,'11111222,11111222,11144222' 
TCOON,ioos:station:TCOON:057:1,2004-01-02T01:00:00Z,28.4460,-96.3961,0.0,3.0,100.0,99.0,'11111222,11111222,11144222' 
TCOON,ioos:station:TCOON:057:1,2004-01-02T03:00:00Z,28.4460,-96.3961,0.0,3.0,120.0,99.0,'11111222,11111222,11144222' 
TCOON,ioos:station:TCOON:057:1,2004-01-02T04:00:00Z,28.4460,-96.3961,0.0,4.0,140.0,99.0,'11111222,11111222,11144222' 
TCOON,ioos:station:TCOON:057:1,2004-01-02T06:00:00Z,28.4460,-96.3961,0.0,3.0,160.0,99.0,'11111222,11111222,11144222' 
TCOON,ioos:station:TCOON:057:1,2004-01-02T07:00:00Z,28.4460,-96.3961,0.0,3.0,160.0,99.0,'11111222,11111222,11144222' 
TCOON,ioos:station:TCOON:057:1,2004-01-02T09:00:00Z,28.4460,-96.3961,0.0,4.0,180.0,99.0,'11111222,11111222,11144222' 
TCOON,ioos:station:TCOON:057:1,2004-01-02T10:00:00Z,28.4460,-96.3961,0.0,4.0,170.0,99.0,'11111222,11111222,11144222' 
TCOON,ioos:station:TCOON:057:1,2004-01-02T12:00:00Z,28.4460,-96.3961,0.0,4.0,180.0,99.0,'11111222,11111222,11144222' 
TCOON,ioos:station:TCOON:057:1,2004-01-02T13:00:00Z,28.4460,-96.3961,0.0,4.0,170.0,99.0,'11111222,11111222,11144222' 
TCOON,ioos:station:TCOON:057:1,2004-01-02T15:00:00Z,28.4460,-96.3961,0.0,5.0,160.0,99.0,'11111222,11111222,11144222' 
TCOON,ioos:station:TCOON:057:1,2004-01-02T16:00:00Z,28.4460,-96.3961,0.0,4.0,170.0,99.0,'11111222,11111222,11144222' 
TCOON,ioos:station:TCOON:057:1,2004-01-02T18:00:00Z,28.4460,-96.3961,0.0,4.0,180.0,99.0,'11111222,11111222,11144222' 
TCOON,ioos:station:TCOON:057:1,2004-01-02T19:00:00Z,28.4460,-96.3961,0.0,4.0,170.0,99.0,'11111222,11111222,11144222' 
TCOON,ioos:station:TCOON:057:1,2004-01-02T21:00:00Z,28.4460,-96.3961,0.0,3.0,180.0,99.0,'11111222,11111222,11144222' 
TCOON,ioos:station:TCOON:057:1,2004-01-02T22:00:00Z,28.4460,-96.3961,0.0,2.0,180.0,99.0,'11111222,11111222,11144222' 
TCOON,ioos:station:TCOON:057:1,2004-01-03T00:00:00Z,28.4460,-96.3961,0.0,3.0,140.0,99.0,'11111222,11111222,11144222' 
TCOON,ioos:station:TCOON:057:1,2004-01-03T01:00:00Z,28.4460,-96.3961,0.0,4.0,140.0,99.0,'11111222,11111222,11144222' 
TCOON,ioos:station:TCOON:057:1,2004-01-03T03:00:00Z,28.4460,-96.3961,0.0,4.0,160.0,99.0,'11111222,11111222,11144222' 
TCOON,ioos:station:TCOON:057:1,2004-01-03T04:00:00Z,28.4460,-96.3961,0.0,5.0,160.0,99.0,'11111222,11111222,11144222' 
TCOON,ioos:station:TCOON:057:1,2004-01-03T06:00:00Z,28.4460,-96.3961,0.0,5.0,160.0,99.0,'11111222,11111222,11144222' 
TCOON,ioos:station:TCOON:057:1,2004-01-03T07:00:00Z,28.4460,-96.3961,0.0,5.0,170.0,99.0,'11111222,11111222,11144222' 
TCOON,ioos:station:TCOON:057:1,2004-01-03T09:00:00Z,28.4460,-96.3961,0.0,4.0,170.0,99.0,'11111222,11111222,11144222' 
TCOON,ioos:station:TCOON:057:1,2004-01-03T10:00:00Z,28.4460,-96.3961,0.0,5.0,160.0,99.0,'11111222,11111222,11144222' 
TCOON,ioos:station:TCOON:057:1,2004-01-03T12:00:00Z,28.4460,-96.3961,0.0,5.0,160.0,99.0,'11111222,11111222,11144222' 
TCOON,ioos:station:TCOON:057:1,2004-01-03T13:00:00Z,28.4460,-96.3961,0.0,5.0,160.0,99.0,'11111222,11111222,11144222' 
TCOON,ioos:station:TCOON:057:1,2004-01-03T16:00:00Z,28.4460,-96.3961,0.0,5.0,160.0,99.0,'11111222,11111222,11144222' 
TCOON,ioos:station:TCOON:057:1,2004-01-03T18:00:00Z,28.4460,-96.3961,0.0,6.0,160.0,99.0,'11111222,11111222,11144222' 
TCOON,ioos:station:TCOON:057:1,2004-01-03T19:00:00Z,28.4460,-96.3961,0.0,6.0,160.0,99.0,'11111222,11111222,11144222' 
TCOON,ioos:station:TCOON:057:1,2004-01-03T22:00:00Z,28.4460,-96.3961,0.0,6.0,160.0,99.0,'11111222,11111222,11144222' 
TCOON,ioos:station:TCOON:057:1,2004-01-04T01:00:00Z,28.4460,-96.3961,0.0,5.0,160.0,99.0,'11111222,11111222,11144222' 
TCOON,ioos:station:TCOON:057:1,2004-01-04T03:00:00Z,28.4460,-96.3961,0.0,5.0,160.0,99.0,'11111222,11111222,11144222' 
TCOON,ioos:station:TCOON:057:1,2004-01-04T04:00:00Z,28.4460,-96.3961,0.0,5.0,160.0,99.0,'11111222,11111222,11144222' 
TCOON,ioos:station:TCOON:057:1,2004-01-04T06:00:00Z,28.4460,-96.3961,0.0,5.0,160.0,99.0,'11111222,11111222,11144222' 
TCOON,ioos:station:TCOON:057:1,2004-01-04T07:00:00Z,28.4460,-96.3961,0.0,7.0,170.0,99.0,'11111222,11111222,11144222' 
TCOON,ioos:station:TCOON:057:1,2004-01-04T09:00:00Z,28.4460,-96.3961,0.0,6.0,170.0,99.0,'11111222,11111222,11144222' 
TCOON,ioos:station:TCOON:057:1,2004-01-04T10:00:00Z,28.4460,-96.3961,0.0,5.0,160.0,99.0,'11111222,11111222,11144222' 
TCOON,ioos:station:TCOON:057:1,2004-01-04T12:00:00Z,28.4460,-96.3961,0.0,5.0,160.0,99.0,'11111222,11111222,11144222' 
TCOON,ioos:station:TCOON:057:1,2004-01-04T13:00:00Z,28.4460,-96.3961,0.0,5.0,170.0,99.0,'11111222,11111222,11144222' 
TCOON,ioos:station:TCOON:057:1,2004-01-04T18:00:00Z,28.4460,-96.3961,0.0,5.0,160.0,99.0,'11111222,11111222,11144222' 
TCOON,ioos:station:TCOON:057:1,2004-01-04T19:00:00Z,28.4460,-96.3961,0.0,3.0,160.0,99.0,'11111222,11111222,11144222' 
TCOON,ioos:station:TCOON:057:1,2004-01-04T22:00:00Z,28.4460,-96.3961,0.0,0.0,0.0,99.0,'11111222,11111222,11144222' 
TCOON,ioos:station:TCOON:057:1,2004-01-05T00:00:00Z,28.4460,-96.3961,0.0,0.0,0.0,99.0,'11111222,11111222,11144222' 
TCOON,ioos:station:TCOON:057:1,2004-01-05T01:00:00Z,28.4460,-96.3961,0.0,1.0,80.0,99.0,'11111222,11111222,11144222' 
TCOON,ioos:station:TCOON:057:1,2004-01-05T03:00:00Z,28.4460,-96.3961,0.0,0.0,0.0,99.0,'11111222,11111222,11144222' 
TCOON,ioos:station:TCOON:057:1,2004-01-05T04:00:00Z,28.4460,-96.3961,0.0,2.0,0.0,99.0,'11111222,11111222,11144222' 
TCOON,ioos:station:TCOON:057:1,2004-01-05T06:00:00Z,28.4460,-96.3961,0.0,11.0,30.0,99.0,'11111222,11111222,11144222' 
TCOON,ioos:station:TCOON:057:1,2004-01-05T07:00:00Z,28.4460,-96.3961,0.0,9.0,20.0,99.0,'11111222,11111222,11144222' 
TCOON,ioos:station:TCOON:057:1,2004-01-05T09:00:00Z,28.4460,-96.3961,0.0,9.0,10.0,99.0,'11111222,11111222,11144222' 
TCOON,ioos:station:TCOON:057:1,2004-01-05T10:00:00Z,28.4460,-96.3961,0.0,9.0,10.0,99.0,'11111222,11111222,11144222' 
TCOON,ioos:station:TCOON:057:1,2004-01-05T12:00:00Z,28.4460,-96.3961,0.0,11.0,10.0,99.0,'11111222,11111222,11144222' 
TCOON,ioos:station:TCOON:057:1,2004-01-05T13:00:00Z,28.4460,-96.3961,0.0,10.0,30.0,99.0,'11111222,11111222,11144222' 
TCOON,ioos:station:TCOON:057:1,2004-01-05T15:00:00Z,28.4460,-96.3961,0.0,8.0,20.0,99.0,'11111222,11111222,11144222' 
TCOON,ioos:station:TCOON:057:1,2004-01-05T16:00:00Z,28.4460,-96.3961,0.0,10.0,20.0,99.0,'11111222,11111222,11144222' 
TCOON,ioos:station:TCOON:057:1,2004-01-05T19:00:00Z,28.4460,-96.3961,0.0,9.0,20.0,99.0,'11111222,11111222,11144222' 
TCOON,ioos:station:TCOON:057:1,2004-01-05T21:00:00Z,28.4460,-96.3961,0.0,9.0,10.0,99.0,'11111222,11111222,11144222' 
TCOON,ioos:station:TCOON:057:1,2004-01-05T22:00:00Z,28.4460,-96.3961,0.0,10.0,20.0,99.0,'11111222,11111222,11144222' 
TCOON,ioos:station:TCOON:057:1,2004-01-06T01:00:00Z,28.4460,-96.3961,0.0,10.0,10.0,99.0,'11111222,11111222,11144222' 
TCOON,ioos:station:TCOON:057:1,2004-01-06T03:00:00Z,28.4460,-96.3961,0.0,12.0,20.0,99.0,'11111222,11111222,11144222' 
TCOON,ioos:station:TCOON:057:1,2004-01-06T04:00:00Z,28.4460,-96.3961,0.0,10.0,30.0,99.0,'11111222,11111222,11144222' 
TCOON,ioos:station:TCOON:057:1,2004-01-06T06:00:00Z,28.4460,-96.3961,0.0,10.0,20.0,99.0,'11111222,11111222,11144222' 
TCOON,ioos:station:TCOON:057:1,2004-01-06T07:00:00Z,28.4460,-96.3961,0.0,9.0,20.0,99.0,'11111222,11111222,11144222' 
TCOON,ioos:station:TCOON:057:1,2004-01-06T09:00:00Z,28.4460,-96.3961,0.0,11.0,20.0,99.0,'11111222,11111222,11144222' 
TCOON,ioos:station:TCOON:057:1,2004-01-06T10:00:00Z,28.4460,-96.3961,0.0,11.0,20.0,99.0,'11111222,11111222,11144222' 
TCOON,ioos:station:TCOON:057:1,2004-01-06T12:00:00Z,28.4460,-96.3961,0.0,10.0,20.0,99.0,'11111222,11111222,11144222' 
TCOON,ioos:station:TCOON:057:1,2004-01-06T13:00:00Z,28.4460,-96.3961,0.0,11.0,20.0,99.0,'11111222,11111222,11144222' 
TCOON,ioos:station:TCOON:057:1,2004-01-07T00:00:00Z,28.4460,-96.3961,0.0,6.0,20.0,99.0,'11111222,11111222,11144222' 
TCOON,ioos:station:TCOON:057:1,2004-01-07T01:00:00Z,28.4460,-96.3961,0.0,8.0,30.0,99.0,'11111222,11111222,11144222' 
TCOON,ioos:station:TCOON:057:1,2004-01-07T03:00:00Z,28.4460,-96.3961,0.0,7.0,30.0,99.0,'11111222,11111222,11144222' 
TCOON,ioos:station:TCOON:057:1,2004-01-07T04:00:00Z,28.4460,-96.3961,0.0,7.0,40.0,99.0,'11111222,11111222,11144222' 
TCOON,ioos:station:TCOON:057:1,2004-01-07T06:00:00Z,28.4460,-96.3961,0.0,6.0,40.0,99.0,'11111222,11111222,11144222' 
TCOON,ioos:station:TCOON:057:1,2004-01-07T07:00:00Z,28.4460,-96.3961,0.0,6.0,30.0,99.0,'11111222,11111222,11144222' 
TCOON,ioos:station:TCOON:057:1,2004-01-07T09:00:00Z,28.4460,-96.3961,0.0,7.0,50.0,99.0,'11111222,11111222,11144222' 
TCOON,ioos:station:TCOON:057:1,2004-01-07T10:00:00Z,28.4460,-96.3961,0.0,6.0,60.0,99.0,'11111222,11111222,11144222' 
TCOON,ioos:station:TCOON:057:1,2004-01-07T15:00:00Z,28.4460,-96.3961,0.0,8.0,50.0,99.0,'11111222,11111222,11144222' 
TCOON,ioos:station:TCOON:057:1,2004-01-07T16:00:00Z,28.4460,-96.3961,0.0,7.0,50.0,99.0,'11111222,11111222,11144222' 
TCOON,ioos:station:TCOON:057:1,2004-01-07T18:00:00Z,28.4460,-96.3961,0.0,8.0,70.0,99.0,'11111222,11111222,11144222' 
TCOON,ioos:station:TCOON:057:1,2004-01-07T19:00:00Z,28.4460,-96.3961,0.0,7.0,80.0,99.0,'11111222,11111222,11144222' 
TCOON,ioos:station:TCOON:057:1,2004-01-07T21:00:00Z,28.4460,-96.3961,0.0,7.0,60.0,99.0,'11111222,11111222,11144222' 
TCOON,ioos:station:TCOON:057:1,2004-01-07T22:00:00Z,28.4460,-96.3961,0.0,8.0,60.0,99.0,'11111222,11111222,11144222' 
TCOON,ioos:station:TCOON:057:1,2004-01-08T06:00:00Z,28.4460,-96.3961,0.0,5.0,80.0,99.0,'11111222,11111222,11144222' 
TCOON,ioos:station:TCOON:057:1,2004-01-08T07:00:00Z,28.4460,-96.3961,0.0,6.0,80.0,99.0,'11111222,11111222,11144222' 
TCOON,ioos:station:TCOON:057:1,2004-01-08T09:00:00Z,28.4460,-96.3961,0.0,4.0,90.0,99.0,'11111222,11111222,11144222' 
TCOON,ioos:station:TCOON:057:1,2004-01-08T10:00:00Z,28.4460,-96.3961,0.0,2.0,100.0,99.0,'11111222,11111222,11144222' 
TCOON,ioos:station:TCOON:057:1,2004-01-08T12:00:00Z,28.4460,-96.3961,0.0,3.0,70.0,99.0,'11111222,11111222,11144222' 
TCOON,ioos:station:TCOON:057:1,2004-01-08T13:00:00Z,28.4460,-96.3961,0.0,3.0,340.0,99.0,'11111222,11111222,11144222' 
TCOON,ioos:station:TCOON:057:1,2004-01-08T18:00:00Z,28.4460,-96.3961,0.0,5.0,320.0,99.0,'11111222,11111222,11144222' 
TCOON,ioos:station:TCOON:057:1,2004-01-08T19:00:00Z,28.4460,-96.3961,0.0,4.0,330.0,99.0,'11111222,11111222,11144222' 
TCOON,ioos:station:TCOON:057:1,2004-01-08T21:00:00Z,28.4460,-96.3961,0.0,0.0,0.0,99.0,'11111222,11111222,11144222' 
TCOON,ioos:station:TCOON:057:1,2004-01-08T22:00:00Z,28.4460,-96.3961,0.0,1.0,330.0,99.0,'11111222,11111222,11144222' 
TCOON,ioos:station:TCOON:057:1,2004-01-09T00:00:00Z,28.4460,-96.3961,0.0,0.0,0.0,99.0,'11111222,11111222,11144222' 
TCOON,ioos:station:TCOON:057:1,2004-01-09T01:00:00Z,28.4460,-96.3961,0.0,0.0,0.0,99.0,'11111222,11111222,11144222' 
TCOON,ioos:station:TCOON:057:1,2004-01-09T07:00:00Z,28.4460,-96.3961,0.0,3.0,320.0,99.0,'11111222,11111222,11144222' 
TCOON,ioos:station:TCOON:057:1,2004-01-09T12:00:00Z,28.4460,-96.3961,0.0,8.0,30.0,99.0,'11111222,11111222,11144222' 
TCOON,ioos:station:TCOON:057:1,2004-01-09T13:00:00Z,28.4460,-96.3961,0.0,7.0,20.0,99.0,'11111222,11111222,11144222' 
TCOON,ioos:station:TCOON:057:1,2004-01-09T15:00:00Z,28.4460,-96.3961,0.0,7.0,20.0,99.0,'11111222,11111222,11144222' 
TCOON,ioos:station:TCOON:057:1,2004-01-09T16:00:00Z,28.4460,-96.3961,0.0,7.0,20.0,99.0,'11111222,11111222,11144222' 
TCOON,ioos:station:TCOON:057:1,2004-01-09T18:00:00Z,28.4460,-96.3961,0.0,7.0,20.0,99.0,'11111222,11111222,11144222' 
TCOON,ioos:station:TCOON:057:1,2004-01-09T19:00:00Z,28.4460,-96.3961,0.0,5.0,20.0,99.0,'11111222,11111222,11144222' 
TCOON,ioos:station:TCOON:057:1,2004-01-09T21:00:00Z,28.4460,-96.3961,0.0,6.0,20.0,99.0,'11111222,11111222,11144222' 
TCOON,ioos:station:TCOON:057:1,2004-01-09T22:00:00Z,28.4460,-96.3961,0.0,7.0,10.0,99.0,'11111222,11111222,11144222' 
TCOON,ioos:station:TCOON:057:1,2004-01-10T00:00:00Z,28.4460,-96.3961,0.0,4.0,10.0,99.0,'11111222,11111222,11144222' 
TCOON,ioos:station:TCOON:057:1,2004-01-10T01:00:00Z,28.4460,-96.3961,0.0,5.0,10.0,99.0,'11111222,11111222,11144222' 
TCOON,ioos:station:TCOON:057:1,2004-01-10T03:00:00Z,28.4460,-96.3961,0.0,6.0,30.0,99.0,'11111222,11111222,11144222' 
TCOON,ioos:station:TCOON:057:1,2004-01-10T04:00:00Z,28.4460,-96.3961,0.0,7.0,20.0,99.0,'11111222,11111222,11144222' 
TCOON,ioos:station:TCOON:057:1,2004-01-10T09:00:00Z,28.4460,-96.3961,0.0,7.0,30.0,99.0,'11111222,11111222,11144222' 
TCOON,ioos:station:TCOON:057:1,2004-01-10T10:00:00Z,28.4460,-96.3961,0.0,8.0,40.0,99.0,'11111222,11111222,11144222' 
TCOON,ioos:station:TCOON:057:1,2004-01-10T12:00:00Z,28.4460,-96.3961,0.0,6.0,40.0,99.0,'11111222,11111222,11144222' 
TCOON,ioos:station:TCOON:057:1,2004-01-10T13:00:00Z,28.4460,-96.3961,0.0,6.0,30.0,99.0,'11111222,11111222,11144222' 
TCOON,ioos:station:TCOON:057:1,2004-01-12T18:00:00Z,28.4460,-96.3961,0.0,4.0,80.0,99.0,'11111222,11111222,11144222' 
TCOON,ioos:station:TCOON:057:1,2004-01-12T19:00:00Z,28.4460,-96.3961,0.0,4.0,70.0,99.0,'11111222,11111222,11144222' 
TCOON,ioos:station:TCOON:057:1,2004-01-12T21:00:00Z,28.4460,-96.3961,0.0,3.0,80.0,99.0,'11111222,11111222,11144222' 
TCOON,ioos:station:TCOON:057:1,2004-01-12T22:00:00Z,28.4460,-96.3961,0.0,3.0,90.0,99.0,'11111222,11111222,11144222' 
TCOON,ioos:station:TCOON:057:1,2004-01-13T00:00:00Z,28.4460,-96.3961,0.0,3.0,90.0,99.0,'11111222,11111222,11144222' 
TCOON,ioos:station:TCOON:057:1,2004-01-13T01:00:00Z,28.4460,-96.3961,0.0,3.0,90.0,99.0,'11111222,11111222,11144222' 
TCOON,ioos:station:TCOON:057:1,2004-01-13T03:00:00Z,28.4460,-96.3961,0.0,3.0,90.0,99.0,'11111222,11111222,11144222' 
TCOON,ioos:station:TCOON:057:1,2004-01-13T04:00:00Z,28.4460,-96.3961,0.0,3.0,80.0,99.0,'11111222,11111222,11144222' 
TCOON,ioos:station:TCOON:057:1,2004-01-13T06:00:00Z,28.4460,-96.3961,0.0,1.0,80.0,99.0,'11111222,11111222,11144222' 
TCOON,ioos:station:TCOON:057:1,2004-01-13T07:00:00Z,28.4460,-96.3961,0.0,1.0,90.0,99.0,'11111222,11111222,11144222' 
TCOON,ioos:station:TCOON:057:1,2004-01-13T09:00:00Z,28.4460,-96.3961,0.0,2.0,100.0,99.0,'11111222,11111222,11144222' 
TCOON,ioos:station:TCOON:057:1,2004-01-13T10:00:00Z,28.4460,-96.3961,0.0,2.0,80.0,99.0,'11111222,11111222,11144222' 
TCOON,ioos:station:TCOON:057:1,2004-01-13T12:00:00Z,28.4460,-96.3961,0.0,2.0,100.0,99.0,'11111222,11111222,11144222' 
TCOON,ioos:station:TCOON:057:1,2004-01-13T13:00:00Z,28.4460,-96.3961,0.0,2.0,70.0,99.0,'11111222,11111222,11144222' 
TCOON,ioos:station:TCOON:057:1,2004-01-13T15:00:00Z,28.4460,-96.3961,0.0,3.0,110.0,99.0,'11111222,11111222,11144222' 
TCOON,ioos:station:TCOON:057:1,2004-01-13T16:00:00Z,28.4460,-96.3961,0.0,3.0,100.0,99.0,'11111222,11111222,11144222' 
TCOON,ioos:station:TCOON:057:1,2004-01-13T18:00:00Z,28.4460,-96.3961,0.0,2.0,80.0,99.0,'11111222,11111222,11144222' 
TCOON,ioos:station:TCOON:057:1,2004-01-13T19:00:00Z,28.4460,-96.3961,0.0,1.0,90.0,99.0,'11111222,11111222,11144222' 
TCOON,ioos:station:TCOON:057:1,2004-01-13T21:00:00Z,28.4460,-96.3961,0.0,1.0,90.0,99.0,'11111222,11111222,11144222' 
TCOON,ioos:station:TCOON:057:1,2004-01-13T22:00:00Z,28.4460,-96.3961,0.0,2.0,100.0,99.0,'11111222,11111222,11144222' 
TCOON,ioos:station:TCOON:057:1,2004-01-14T00:00:00Z,28.4460,-96.3961,0.0,4.0,110.0,99.0,'11111222,11111222,11144222' 
TCOON,ioos:station:TCOON:057:1,2004-01-14T01:00:00Z,28.4460,-96.3961,0.0,2.0,120.0,99.0,'11111222,11111222,11144222' 
TCOON,ioos:station:TCOON:057:1,2004-01-14T03:00:00Z,28.4460,-96.3961,0.0,3.0,100.0,99.0,'11111222,11111222,11144222' 
TCOON,ioos:station:TCOON:057:1,2004-01-14T04:00:00Z,28.4460,-96.3961,0.0,1.0,120.0,99.0,'11111222,11111222,11144222' 
TCOON,ioos:station:TCOON:057:1,2004-01-14T06:00:00Z,28.4460,-96.3961,0.0,1.0,120.0,99.0,'11111222,11111222,11144222' 
TCOON,ioos:station:TCOON:057:1,2004-01-14T07:00:00Z,28.4460,-96.3961,0.0,0.0,0.0,99.0,'11111222,11111222,11144222' 
TCOON,ioos:station:TCOON:057:1,2004-01-14T09:00:00Z,28.4460,-96.3961,0.0,0.0,0.0,99.0,'11111222,11111222,11144222' 
TCOON,ioos:station:TCOON:057:1,2004-01-14T10:00:00Z,28.4460,-96.3961,0.0,1.0,60.0,99.0,'11111222,11111222,11144222' 
TCOON,ioos:station:TCOON:057:1,2004-01-14T12:00:00Z,28.4460,-96.3961,0.0,1.0,100.0,99.0,'11111222,11111222,11144222' 
TCOON,ioos:station:TCOON:057:1,2004-01-14T13:00:00Z,28.4460,-96.3961,0.0,1.0,100.0,99.0,'11111222,11111222,11144222' 
TCOON,ioos:station:TCOON:057:1,2004-01-14T15:00:00Z,28.4460,-96.3961,0.0,0.0,0.0,99.0,'11111222,11111222,11144222' 
TCOON,ioos:station:TCOON:057:1,2004-01-14T16:00:00Z,28.4460,-96.3961,0.0,1.0,110.0,99.0,'11111222,11111222,11144222' 
TCOON,ioos:station:TCOON:057:1,2004-01-14T18:00:00Z,28.4460,-96.3961,0.0,1.0,30.0,99.0,'11111222,11111222,11144222' 
TCOON,ioos:station:TCOON:057:1,2004-01-14T19:00:00Z,28.4460,-96.3961,0.0,0.0,0.0,99.0,'11111222,11111222,11144222' 
TCOON,ioos:station:TCOON:057:1,2004-01-14T22:00:00Z,28.4460,-96.3961,0.0,1.0,90.0,99.0,'11111222,11111222,11144222' 
TCOON,ioos:station:TCOON:057:1,2004-01-15T00:00:00Z,28.4460,-96.3961,0.0,2.0,90.0,99.0,'11111222,11111222,11144222' 
TCOON,ioos:station:TCOON:057:1,2004-01-15T01:00:00Z,28.4460,-96.3961,0.0,2.0,80.0,99.0,'11111222,11111222,11144222' 
TCOON,ioos:station:TCOON:057:1,2004-01-15T03:00:00Z,28.4460,-96.3961,0.0,1.0,80.0,99.0,'11111222,11111222,11144222' 
TCOON,ioos:station:TCOON:057:1,2004-01-15T04:00:00Z,28.4460,-96.3961,0.0,3.0,80.0,99.0,'11111222,11111222,11144222' 
TCOON,ioos:station:TCOON:057:1,2004-01-15T06:00:00Z,28.4460,-96.3961,0.0,2.0,90.0,99.0,'11111222,11111222,11144222' 
TCOON,ioos:station:TCOON:057:1,2004-01-15T07:00:00Z,28.4460,-96.3961,0.0,1.0,90.0,99.0,'11111222,11111222,11144222' 
TCOON,ioos:station:TCOON:057:1,2004-01-15T09:00:00Z,28.4460,-96.3961,0.0,4.0,90.0,99.0,'11111222,11111222,11144222' 
TCOON,ioos:station:TCOON:057:1,2004-01-15T10:00:00Z,28.4460,-96.3961,0.0,4.0,100.0,99.0,'11111222,11111222,11144222' 
TCOON,ioos:station:TCOON:057:1,2004-01-15T12:00:00Z,28.4460,-96.3961,0.0,5.0,80.0,99.0,'11111222,11111222,11144222' 
TCOON,ioos:station:TCOON:057:1,2004-01-15T13:00:00Z,28.4460,-96.3961,0.0,5.0,80.0,99.0,'11111222,11111222,11144222' 
TCOON,ioos:station:TCOON:057:1,2004-01-15T15:00:00Z,28.4460,-96.3961,0.0,6.0,100.0,99.0,'11111222,11111222,11144222' 
TCOON,ioos:station:TCOON:057:1,2004-01-15T16:00:00Z,28.4460,-96.3961,0.0,6.0,100.0,99.0,'11111222,11111222,11144222' 
TCOON,ioos:station:TCOON:057:1,2004-01-15T18:00:00Z,28.4460,-96.3961,0.0,6.0,100.0,99.0,'11111222,11111222,11144222' 
TCOON,ioos:station:TCOON:057:1,2004-01-15T19:00:00Z,28.4460,-96.3961,0.0,6.0,100.0,99.0,'11111222,11111222,11144222' 
TCOON,ioos:station:TCOON:057:1,2004-01-15T21:00:00Z,28.4460,-96.3961,0.0,6.0,100.0,99.0,'11111222,11111222,11144222' 
TCOON,ioos:station:TCOON:057:1,2004-01-15T22:00:00Z,28.4460,-96.3961,0.0,7.0,100.0,99.0,'11111222,11111222,11144222' 
TCOON,ioos:station:TCOON:057:1,2004-01-16T00:00:00Z,28.4460,-96.3961,0.0,7.0,90.0,99.0,'11111222,11111222,11144222' 
TCOON,ioos:station:TCOON:057:1,2004-01-16T01:00:00Z,28.4460,-96.3961,0.0,7.0,100.0,99.0,'11111222,11111222,11144222' 
TCOON,ioos:station:TCOON:057:1,2004-01-16T03:00:00Z,28.4460,-96.3961,0.0,7.0,100.0,99.0,'11111222,11111222,11144222' 
TCOON,ioos:station:TCOON:057:1,2004-01-16T04:00:00Z,28.4460,-96.3961,0.0,6.0,100.0,99.0,'11111222,11111222,11144222' 
TCOON,ioos:station:TCOON:057:1,2004-01-16T06:00:00Z,28.4460,-96.3961,0.0,4.0,100.0,99.0,'11111222,11111222,11144222' 
TCOON,ioos:station:TCOON:057:1,2004-01-16T07:00:00Z,28.4460,-96.3961,0.0,5.0,100.0,99.0,'11111222,11111222,11144222' 
TCOON,ioos:station:TCOON:057:1,2004-01-16T09:00:00Z,28.4460,-96.3961,0.0,4.0,110.0,99.0,'11111222,11111222,11144222' 
TCOON,ioos:station:TCOON:057:1,2004-01-16T10:00:00Z,28.4460,-96.3961,0.0,4.0,120.0,99.0,'11111222,11111222,11144222' 
TCOON,ioos:station:TCOON:057:1,2004-01-16T12:00:00Z,28.4460,-96.3961,0.0,4.0,120.0,99.0,'11111222,11111222,11144222' 
TCOON,ioos:station:TCOON:057:1,2004-01-16T13:00:00Z,28.4460,-96.3961,0.0,5.0,130.0,99.0,'11111222,11111222,11144222' 
TCOON,ioos:station:TCOON:057:1,2004-01-16T15:00:00Z,28.4460,-96.3961,0.0,5.0,130.0,99.0,'11111222,11111222,11144222' 
TCOON,ioos:station:TCOON:057:1,2004-01-16T16:00:00Z,28.4460,-96.3961,0.0,5.0,140.0,99.0,'11111222,11111222,11144222' 
TCOON,ioos:station:TCOON:057:1,2004-01-16T18:00:00Z,28.4460,-96.3961,0.0,5.0,130.0,99.0,'11111222,11111222,11144222' 
TCOON,ioos:station:TCOON:057:1,2004-01-16T19:00:00Z,28.4460,-96.3961,0.0,6.0,130.0,99.0,'11111222,11111222,11144222' 
TCOON,ioos:station:TCOON:057:1,2004-01-16T21:00:00Z,28.4460,-96.3961,0.0,6.0,150.0,99.0,'11111222,11111222,11144222' 
TCOON,ioos:station:TCOON:057:1,2004-01-16T22:00:00Z,28.4460,-96.3961,0.0,6.0,150.0,99.0,'11111222,11111222,11144222' 
TCOON,ioos:station:TCOON:057:1,2004-01-17T00:00:00Z,28.4460,-96.3961,0.0,7.0,170.0,99.0,'11111222,11111222,11144222' 
TCOON,ioos:station:TCOON:057:1,2004-01-17T01:00:00Z,28.4460,-96.3961,0.0,7.0,170.0,99.0,'11111222,11111222,11144222' 
TCOON,ioos:station:TCOON:057:1,2004-01-17T03:00:00Z,28.4460,-96.3961,0.0,7.0,200.0,99.0,'11111222,11111222,11144222' 
TCOON,ioos:station:TCOON:057:1,2004-01-17T04:00:00Z,28.4460,-96.3961,0.0,6.0,150.0,99.0,'11111222,11111222,11144222' 
TCOON,ioos:station:TCOON:057:1,2004-01-17T06:00:00Z,28.4460,-96.3961,0.0,1.0,220.0,99.0,'11111222,11111222,11144222' 
TCOON,ioos:station:TCOON:057:1,2004-01-17T07:00:00Z,28.4460,-96.3961,0.0,2.0,250.0,99.0,'11111222,11111222,11144222' 
TCOON,ioos:station:TCOON:057:1,2004-01-17T09:00:00Z,28.4460,-96.3961,0.0,0.0,0.0,99.0,'11111222,11111222,11144222' 
TCOON,ioos:station:TCOON:057:1,2004-01-17T10:00:00Z,28.4460,-96.3961,0.0,0.0,0.0,99.0,'11111222,11111222,11144222' 
TCOON,ioos:station:TCOON:057:1,2004-01-17T12:00:00Z,28.4460,-96.3961,0.0,0.0,0.0,99.0,'11111222,11111222,11144222' 
TCOON,ioos:station:TCOON:057:1,2004-01-17T13:00:00Z,28.4460,-96.3961,0.0,0.0,0.0,99.0,'11111222,11111222,11144222' 
TCOON,ioos:station:TCOON:057:1,2004-01-17T15:00:00Z,28.4460,-96.3961,0.0,2.0,150.0,99.0,'11111222,11111222,11144222' 